This demonstration page uses our WeatherBlox Daily Observations layout. Learn more.

Left ArrowRight Arrow

39.01783, -85.05884

Hourly Observations for October 25, 2020

Temp ( °F °C ) Dew Point ( °F °C ) Humidity (%) Winds ( mph kmh ) Pressure ( in mb ) Visibility ( mi km ) Precip ( " mm )
12:52 am 00:52 Cloudy 47 8.3 35 1.7 63 63 ENE 13 20 30.1 1019 10 16.0934 0 0
1:11 am 01:11 Cloudy 47 8.3 35 1.7 63 63 ENE 14 22 30.12 1020 10 16.0934 0 0
1:52 am 01:52 Cloudy 47 8.3 36 2.2 66 66 NE 14 22 30.09 1019 10 16.0934 0 0
2:52 am 02:52 Cloudy 47 8.3 36 2.2 66 66 ENE 14 22 30.08 1019 10 16.0934 0 0
3:52 am 03:52 Cloudy 47 8.3 36 2.2 66 66 NE 12 19 30.08 1019 10 16.0934 0 0
4:52 am 04:52 Cloudy 47 8.3 36 2.2 66 66 ENE 14 22 30.07 1018 10 16.0934 0 0
5:52 am 05:52 Cloudy 46 7.8 36 2.2 68 68 NE 13 20 30.07 1018 10 16.0934 0 0
6:52 am 06:52 Cloudy with Light Rain 45 7.2 39 3.9 80 80 NE 13 20 30.09 1019 6 9.65604 0.01 0.254
7:52 am 07:52 Cloudy 45 7.2 39 3.9 80 80 NE 15 24 30.09 1019 10 16.0934 0.001 0.001
8:52 am 08:52 Cloudy 45 7.2 39 3.9 80 80 NE 10 17 30.1 1019 10 16.0934 0 0
9:52 am 09:52 Cloudy with Light Rain 45 7.2 40 4.4 83 83 ENE 12 19 30.11 1020 3 4.82802 0.01 0.254
10:52 am 10:52 Cloudy 46 7.8 40 4.4 79 79 NE 12 19 30.11 1020 10 16.0934 0.001 0.001
11:52 am 11:52 Cloudy 47 8.3 40 4.4 77 77 ENE 14 22 30.1 1019 10 16.0934 0 0
12:52 pm 12:52 Cloudy 49 9.4 41 5 74 74 ENE 10 17 30.09 1019 10 16.0934 0 0
1:30 pm 13:30 Cloudy 50 10 41 5 71 71 NE 13 20 30.08 1019 10 16.0934 0 0
1:52 pm 13:52 Cloudy 50 10 41 5 71 71 ENE 10 17 30.06 1018 10 16.0934 0 0
2:15 pm 14:15 Cloudy 51 10.6 41 5 69 69 ENE 13 20 30.07 1018 10 16.0934 0 0
2:52 pm 14:52 Cloudy 52 11.1 41 5 66 66 ENE 9 15 30.03 1017 10 16.0934 0 0
3:52 pm 15:52 Cloudy 53 11.7 42 5.6 66 66 NE 9 15 30.02 1017 10 16.0934 0 0
4:52 pm 16:52 Cloudy 54 12.2 42 5.6 64 64 NE 6 9 30.02 1017 10 16.0934 0 0
5:52 pm 17:52 Cloudy 54 12.2 42 5.6 64 64 NE 8 13 30.02 1017 10 16.0934 0 0
6:52 pm 18:52 Cloudy 53 11.7 42 5.6 66 66 E 8 13 30.03 1017 10 16.0934 0 0
7:52 pm 19:52 Cloudy 53 11.7 42 5.6 66 66 E 9 15 30.02 1017 10 16.0934 0 0
8:52 pm 20:52 Cloudy 52 11.1 43 6.1 72 72 E 9 15 30.03 1017 10 16.0934 0 0
9:52 pm 21:52 Cloudy with Light Rain 50 10 45 7.2 83 83 ESE 7 11 30.04 1017 6 9.65604 0.001 0.001
10:52 pm 22:52 Cloudy 50 10 46 7.8 86 86 E 3 6 30.05 1018 10 16.0934 0.01 0.254
11:52 pm 23:52 Cloudy 50 10 46 7.8 86 86 E 3 6 30.04 1017 10 16.0934 0 0

Powered by AerisWeather